Temp
28 28 27 26 26 26 26 26 25 25 25 24 24 24 23 23 23 22 22 21 21 21 21 21 21 21 21 22 22 22 23 23 23 23 23 23 23 23 23 23 23 22 21 21 21 22 22 22 22 22 22 22 22 22 22 22 21 21 21 21 20 20 20
28 28 27 27 27 26 26 26 25 25 25 24 24 24 23 23 23 22 22 21 21 21 21 21 21 21 22 23 23 23 23 23 23 23 23 23 23 23 23 23 23 22 22 22 21 21 22 22 22 22 22 22 22 22 22 22 22 21 21 21 21 21 21
29 28 28 27 27 27 26 26 26 25 25 25 24 24 24 23 23 23 22 22 21 21 21 21 21 21 22 23 23 23 23 23 23 23 23 23 23 23 23 23 23 23 22 22 21 21 21 21 22 22 22 22 22 22 22 22 22 22 22 21 21 21 21
29 29 28 28 28 27 27 26 26 26 25 25 25 24 24 24 23 23 22 22 22 21 21 21 21 21 21 22 23 24 24 23 24 24 24 24 24 23 23 23 23 23 22 22 22 22 21 21 21 22 22 22 22 22 22 22 22 22 22 22 21 21 21
29 29 28 28 28 27 27 27 26 26 26 25 25 25 24 24 23 23 23 22 22 22 22 21 21 21 21 21 22 23 24 24 24 24 24 24 24 23 23 23 23 23 23 23 22 22 22 22 22 22 22 22 22 22 22 22 22 22 22 22 22 22 21
29 29 28 28 28 28 27 27 26 26 26 25 25 25 24 24 24 23 23 23 22 22 22 21 21 21 21 21 21 22 24 24 24 24 24 24 24 24 24 23 23 23 23 23 23 23 22 22 22 22 22 22 22 22 22 22 22 22 22 22 22 22 22
30 29 29 29 28 28 28 28 27 27 26 26 25 25 25 24 24 24 23 23 23 22 22 21 21 21 21 21 21 22 23 23 24 24 24 24 24 24 24 24 24 24 24 23 23 23 22 22 22 22 22 22 22 22 22 22 22 22 22 22 22 22 22
30 30 29 29 29 29 29 28 27 27 26 26 25 25 25 24 24 24 24 23 23 23 22 22 22 21 21 21 21 22 23 23 24 24 24 24 24 24 24 24 24 24 24 24 23 23 23 23 22 22 21 21 22 22 22 22 22 22 22 22 22 22 22
31 30 30 30 29 29 29 28 28 27 27 27 26 25 25 24 24 24 24 24 23 23 23 22 22 22 22 21 21 22 22 22 23 23 23 23 23 24 24 24 24 24 24 24 24 24 23 23 22 22 22 21 21 22 22 22 22 22 23 23 23 23 23
31 30 30 30 30 29 29 28 27 27 27 27 26 26 25 25 25 24 24 24 24 23 23 22 22 22 22 22 22 22 22 22 23 23 23 23 23 24 24 24 25 24 24 24 24 24 23 23 22 22 22 22 22 22 22 22 23 23 23 23 23 23 23
31 31 31 30 30 29 29 28 27 27 28 27 27 26 26 25 25 25 24 24 24 23 23 23 22 22 22 22 23 23 22 22 23 23 23 23 24 24 24 24 24 24 24 24 24 24 23 23 23 22 22 22 22 22 22 23 23 23 23 23 23 23 23
32 31 30 30 30 29 29 29 28 29 29 28 27 27 26 26 25 25 25 25 24 23 23 23 22 22 22 22 22 23 23 23 23 23 23 24 24 24 24 24 24 25 25 24 24 24 24 23 23 23 22 23 23 23 23 23 23 23 24 24 24 24 23
31 31 30 30 30 30 29 29 29 29 29 28 27 27 26 26 26 25 25 25 25 24 23 23 22 22 22 22 22 22 23 23 24 24 24 25 24 24 24 24 24 24 25 25 25 24 24 24 23 23 23 23 24 24 24 24 24 24 24 24 24 24 24
31 31 30 31 30 30 30 29 29 29 29 28 28 27 27 27 26 26 26 25 25 25 24 23 23 22 22 22 22 22 23 24 25 25 25 25 25 25 25 25 24 24 24 25 25 24 24 24 24 24 24 24 24 24 24 24 24 24 24 24 24 24 24
31 31 30 31 31 30 30 30 29 29 29 28 28 28 28 27 27 26 26 26 26 25 25 24 24 23 23 22 22 22 23 24 25 25 25 25 25 25 25 25 25 25 24 24 24 24 24 24 24 24 24 24 24 24 24 24 24 24 24 24 24 24 24
31 30 30 30 31 31 31 30 30 30 29 29 29 28 28 27 27 27 26 26 26 26 25 25 24 24 23 23 23 23 23 24 24 25 25 25 25 25 25 25 25 25 24 24 24 24 24 24 24 23 24 23 23 23 23 23 24 24 24 24 25 24 24
31 30 30 30 30 30 30 30 30 30 30 29 29 29 28 27 27 27 27 27 26 26 26 26 25 25 24 24 24 23 23 23 24 24 25 25 26 26 26 26 25 25 25 24 24 24 24 24 23 23 24 24 24 24 24 24 24 24 24 24 24 24 24
31 30 30 30 30 30 30 30 30 30 30 30 30 29 28 28 28 27 27 27 27 27 26 26 26 26 25 25 24 24 24 24 24 24 24 25 26 26 26 26 25 25 25 24 24 25 25 24 24 24 24 24 24 24 24 24 24 24 24 24 24 24 24
31 31 31 30 30 30 30 30 30 30 30 30 30 29 28 28 28 28 28 28 27 27 27 27 26 26 26 26 25 25 25 25 24 24 24 25 25 26 26 26 25 25 25 25 25 25 25 25 25 25 24 24 24 24 25 25 25 25 24 24 24 24 24
31 31 31 30 30 30 30 30 30 30 30 30 29 29 29 29 29 29 28 28 28 27 27 27 27 27 27 26 26 26 25 25 25 25 25 25 25 25 25 25 25 25 25 25 25 24 25 25 26 25 25 25 25 25 25 25 25 25 25 24 24 24 24
29 29 28 29 29 29 29 29 29 29 29 29 29 29 29 29 29 29 29 28 28 28 28 27 27 27 27 27 27 26 26 26 26 26 26 25 25 25 25 24 25 25 25 25 25 25 25 25 26 26 26 26 25 25 25 25 25 25 25 24 24 24 23
26 26 26 27 28 28 29 29 29 29 29 28 29 29 29 29 29 29 29 29 28 28 28 28 28 27 27 27 27 27 26 26 26 26 26 26 26 25 25 25 25 25 24 24 24 25 25 25 25 25 26 26 25 25 25 25 25 24 24 24 23 23 23
25 25 26 26 26 27 28 29 29 29 29 29 29 29 29 29 29 29 29 29 29 29 28 28 28 28 28 28 27 27 27 27 26 26 26 26 26 26 26 25 25 25 24 24 24 24 24 24 24 25 25 25 25 25 25 25 24 24 23 23 23 22 22
25 25 25 25 26 26 27 27 28 28 29 30 30 30 30 29 29 28 28 29 29 29 29 29 28 28 28 28 28 28 27 27 27 26 26 26 26 26 26 26 25 25 25 24 24 24 24 24 24 24 24 24 24 24 24 24 24 23 23 23 22 22 22
24 24 24 25 25 25 26 26 26 26 27 28 28 29 29 29 29 28 28 28 28 28 29 29 29 29 28 28 28 28 28 27 27 27 26 26 26 26 26 26 25 25 25 24 24 24 24 24 23 23 24 24 24 24 24 24 23 23 23 23 22 22 22
23 24 24 24 24 24 25 25 25 26 26 26 26 26 27 28 29 28 28 28 28 28 28 29 29 29 29 28 28 28 28 28 27 27 27 26 26 26 26 26 25 25 25 24 24 24 24 24 24 23 23 23 23 23 23 23 23 23 23 23 22 22 22
22 23 24 23 23 23 24 24 24 25 25 25 26 26 26 27 28 28 28 28 28 28 28 28 28 29 29 29 28 28 28 28 27 27 27 26 26 26 25 25 25 25 24 24 24 24 23 23 23 23 23 23 23 23 23 23 23 23 23 23 22 22 22
21 22 23 23 22 22 23 23 23 24 24 25 26 26 25 25 26 27 28 28 28 28 28 28 28 28 29 29 28 28 28 28 27 27 27 26 26 26 25 25 25 25 24 24 24 23 23 23 23 23 23 23 23 23 23 23 23 23 22 22 22 22 22
20 21 21 22 21 21 22 22 22 22 22 23 24 24 25 24 25 25 26 27 28 28 28 28 28 28 28 28 28 28 28 27 27 27 26 26 26 25 25 25 24 24 24 24 23 23 23 23 23 23 23 23 23 22 22 22 22 22 22 22 22 22 22
19 19 20 20 20 21 21 21 21 21 21 21 22 23 23 23 23 24 24 25 26 27 27 28 28 28 28 28 28 28 28 27 27 26 26 26 25 25 25 25 24 24 24 23 23 22 22 22 22 22 22 22 22 22 22 22 22 22 22 22 22 22 22
18 19 19 19 19 20 21 21 20 20 21 20 21 22 21 21 22 23 24 24 25 25 26 27 27 27 27 27 27 27 27 27 26 26 26 25 25 25 24 24 24 23 23 23 22 22 22 22 22 22 22 22 22 22 22 22 22 22 22 22 22 22 22
18 18 19 19 19 19 20 20 20 20 20 20 20 21 21 21 21 22 22 23 23 24 25 26 26 27 26 26 27 27 27 26 26 25 25 25 25 24 24 24 23 23 23 22 22 22 22 22 22 22 22 22 22 22 22 22 22 22 22 22 22 22 22
18 18 18 18 18 19 19 20 19 19 19 20 20 20 20 20 21 21 22 22 23 23 24 25 25 26 26 26 26 26 26 26 25 25 24 24 24 24 24 23 23 23 22 22 22 22 22 22 22 22 22 22 22 22 22 22 22 22 22 22 22 22 22
18 18 18 18 18 19 19 19 19 19 19 19 20 20 20 20 21 21 21 22 22 23 23 24 24 25 25 25 25 25 25 25 25 24 24 24 24 23 23 23 23 22 22 22 22 22 22 22 22 22 22 22 22 22 22 22 22 22 22 22 22 22 22
18 18 18 18 18 18 19 19 19 19 19 19 19 19 20 20 20 21 21 21 22 22 23 23 23 24 24 24 24 24 24 24 24 24 24 23 23 23 23 23 22 22 22 22 22 22 22 22 22 22 22 22 22 22 22 22 22 22 22 22 22 22 22
17 18 18 18 18 19 19 19 19 19 19 19 19 19 20 20 20 20 21 21 21 21 22 22 23 23 23 23 23 23 24 24 24 23 23 23 23 23 23 22 22 22 22 22 22 22 22 22 21 21 22 22 22 22 22 22 22 21 21 21 21 21 21
17 18 18 18 18 18 19 19 19 19 19 19 19 19 20 20 20 20 20 20 21 21 21 22 22 22 23 23 23 23 23 23 23 23 23 23 23 23 22 22 22 21 21 21 21 21 21 21 21 21 21 21 21 21 21 21 21 21 21 21 21 21 21
16 17 17 17 17 18 18 18 18 18 18 18 19 19 20 20 20 20 20 20 21 21 21 21 21 21 22 22 22 23 23 23 23 23 23 23 23 22 22 22 22 21 21 21 21 21 21 21 21 21 21 21 21 21 21 21 21 21 21 21 21 21 21
Height
1432 1436 1440 1443 1447 1451 1454 1457 1462 1467 1470 1474 1477 1482 1484 1486 1488 1491 1493 1496 1499 1502 1505 1508 1511 1513 1515 1518 1521 1524 1527 1529 1532 1534 1536 1539 1541 1543 1545 1547 1549 1551 1552 1553 1554 1556 1558 1561 1563 1564 1565 1567 1568 1570 1572 1573 1574 1576 1577 1577 1578 1579 1580
1428 1432 1435 1439 1443 1447 1450 1453 1458 1463 1467 1470 1474 1479 1482 1483 1485 1487 1490 1493 1496 1499 1503 1506 1508 1511 1512 1515 1518 1521 1523 1526 1529 1531 1534 1536 1538 1540 1542 1544 1546 1548 1550 1551 1553 1555 1557 1559 1561 1562 1564 1565 1567 1568 1570 1571 1573 1574 1575 1576 1577 1577 1578
1423 1427 1430 1434 1438 1442 1446 1450 1454 1458 1462 1466 1470 1474 1476 1478 1481 1484 1487 1490 1493 1497 1501 1504 1506 1508 1510 1512 1515 1517 1520 1523 1526 1528 1531 1533 1536 1538 1540 1542 1544 1546 1548 1550 1552 1553 1555 1557 1559 1560 1562 1563 1565 1566 1568 1569 1571 1572 1573 1574 1575 1575 1576
1417 1420 1424 1429 1433 1438 1442 1446 1450 1453 1457 1460 1463 1466 1471 1476 1480 1483 1485 1487 1491 1494 1497 1500 1503 1506 1508 1509 1512 1514 1517 1520 1523 1525 1528 1530 1533 1535 1538 1539 1541 1544 1546 1548 1550 1551 1553 1555 1556 1558 1560 1561 1563 1564 1566 1567 1568 1570 1571 1572 1573 1574 1574
1413 1417 1422 1426 1431 1435 1438 1442 1446 1449 1453 1456 1459 1464 1469 1474 1478 1481 1483 1485 1487 1490 1493 1497 1500 1503 1506 1508 1510 1512 1514 1517 1520 1522 1525 1528 1530 1533 1535 1537 1539 1541 1543 1545 1547 1549 1551 1553 1554 1555 1557 1558 1560 1561 1563 1564 1565 1567 1568 1569 1570 1571 1572
1411 1415 1419 1423 1428 1432 1435 1438 1442 1445 1449 1453 1458 1463 1466 1470 1473 1476 1479 1481 1484 1487 1490 1495 1498 1501 1503 1506 1508 1510 1512 1514 1517 1519 1522 1525 1527 1529 1531 1534 1536 1538 1540 1542 1544 1546 1547 1549 1551 1553 1554 1555 1557 1558 1560 1561 1563 1564 1565 1567 1568 1568 1570
1407 1410 1415 1419 1424 1428 1431 1435 1439 1442 1447 1450 1454 1459 1462 1465 1468 1471 1475 1477 1479 1483 1487 1491 1494 1497 1500 1502 1505 1507 1509 1511 1513 1516 1519 1521 1524 1526 1528 1531 1533 1535 1537 1539 1541 1543 1544 1546 1548 1549 1551 1553 1554 1555 1557 1558 1560 1561 1562 1563 1565 1566 1567
1402 1406 1411 1415 1419 1424 1428 1432 1436 1440 1444 1447 1451 1454 1458 1461 1464 1467 1470 1471 1474 1478 1482 1486 1490 1493 1496 1499 1501 1503 1506 1508 1510 1513 1516 1518 1520 1522 1525 1527 1530 1532 1534 1536 1538 1539 1541 1543 1545 1546 1548 1550 1551 1553 1554 1555 1557 1558 1559 1560 1561 1563 1564
1400 1404 1409 1413 1416 1421 1424 1428 1433 1437 1441 1444 1447 1451 1455 1458 1461 1463 1465 1467 1470 1474 1478 1482 1486 1490 1493 1496 1498 1500 1503 1506 1508 1510 1513 1515 1517 1519 1521 1524 1526 1529 1531 1533 1535 1536 1538 1540 1542 1544 1545 1547 1549 1550 1551 1552 1553 1555 1556 1557 1558 1559 1561
1398 1403 1407 1411 1415 1418 1422 1426 1430 1434 1438 1441 1445 1448 1452 1455 1458 1461 1463 1465 1467 1470 1474 1479 1482 1486 1489 1492 1494 1497 1500 1503 1505 1507 1509 1511 1513 1516 1518 1521 1523 1526 1528 1530 1532 1533 1535 1537 1539 1541 1543 1544 1545 1546 1548 1549 1550 1551 1552 1553 1554 1555 1557
1396 1401 1404 1408 1412 1416 1421 1425 1428 1431 1434 1437 1441 1445 1448 1452 1456 1459 1462 1464 1466 1469 1472 1476 1479 1483 1485 1488 1491 1494 1496 1498 1501 1503 1505 1507 1510 1512 1515 1518 1520 1522 1524 1526 1528 1530 1532 1534 1536 1538 1539 1541 1542 1543 1544 1545 1546 1547 1548 1549 1551 1552 1553
1391 1395 1400 1405 1409 1414 1418 1422 1425 1428 1431 1434 1438 1441 1445 1449 1453 1456 1459 1463 1465 1467 1470 1473 1477 1480 1482 1485 1487 1489 1491 1494 1497 1499 1501 1503 1506 1509 1512 1514 1516 1518 1520 1523 1525 1527 1528 1530 1532 1533 1535 1537 1538 1539 1540 1541 1542 1543 1545 1546 1547 1548 1550
1388 1390 1396 1401 1406 1412 1416 1419 1422 1424 1428 1431 1435 1439 1442 1446 1450 1454 1457 1460 1463 1466 1468 1471 1474 1476 1479 1481 1483 1485 1487 1489 1492 1494 1496 1499 1502 1505 1508 1510 1513 1515 1517 1519 1521 1523 1525 1526 1528 1529 1531 1533 1534 1535 1536 1537 1539 1540 1541 1542 1543 1545 1546
1389 1391 1395 1399 1404 1409 1413 1417 1420 1423 1426 1430 1434 1438 1441 1444 1448 1451 1454 1457 1460 1463 1465 1467 1470 1473 1475 1478 1479 1481 1483 1485 1488 1490 1493 1496 1498 1502 1504 1506 1509 1511 1513 1515 1517 1519 1521 1522 1524 1526 1527 1529 1530 1531 1533 1534 1535 1536 1537 1538 1539 1540 1541
1388 1392 1396 1399 1403 1407 1411 1415 1418 1422 1425 1428 1432 1436 1439 1442 1446 1449 1451 1454 1456 1460 1462 1464 1467 1469 1472 1474 1475 1477 1479 1482 1484 1487 1489 1492 1495 1497 1500 1502 1505 1507 1509 1511 1513 1515 1517 1519 1521 1522 1523 1525 1526 1528 1529 1530 1530 1531 1532 1534 1535 1536 1537
1388 1392 1396 1399 1402 1406 1409 1413 1416 1420 1424 1427 1431 1435 1437 1440 1442 1445 1449 1451 1454 1457 1459 1462 1464 1465 1468 1469 1471 1474 1476 1479 1481 1483 1486 1488 1490 1493 1495 1498 1500 1503 1505 1507 1509 1511 1514 1516 1517 1518 1520 1521 1522 1523 1524 1525 1525 1526 1528 1529 1531 1532 1533
1389 1393 1397 1400 1404 1406 1409 1412 1416 1419 1422 1426 1430 1433 1436 1438 1440 1443 1446 1449 1451 1454 1457 1459 1460 1461 1463 1465 1468 1471 1473 1475 1478 1480 1482 1484 1486 1489 1491 1494 1496 1499 1501 1503 1506 1508 1510 1512 1513 1514 1515 1517 1517 1518 1519 1519 1520 1521 1523 1525 1526 1528 1529
1393 1396 1399 1402 1405 1408 1410 1412 1415 1418 1422 1425 1428 1431 1434 1437 1438 1441 1443 1446 1449 1451 1454 1456 1457 1458 1460 1462 1465 1467 1470 1472 1475 1477 1478 1480 1482 1485 1487 1490 1492 1495 1497 1499 1501 1504 1506 1507 1508 1510 1511 1512 1513 1513 1513 1514 1515 1517 1519 1520 1522 1524 1525
1396 1399 1401 1404 1407 1409 1412 1414 1416 1419 1422 1425 1427 1430 1433 1435 1437 1439 1441 1444 1447 1449 1451 1453 1455 1456 1457 1459 1461 1463 1465 1469 1471 1473 1475 1477 1479 1481 1484 1486 1488 1491 1493 1495 1497 1500 1501 1503 1504 1505 1507 1507 1508 1508 1509 1509 1511 1512 1514 1516 1518 1520 1522
1398 1400 1402 1405 1408 1410 1413 1416 1418 1421 1423 1425 1427 1430 1432 1435 1436 1438 1440 1442 1444 1447 1449 1450 1452 1454 1455 1456 1458 1459 1462 1465 1467 1469 1471 1473 1476 1479 1480 1483 1485 1487 1489 1492 1494 1496 1497 1498 1500 1501 1502 1502 1503 1504 1504 1505 1506 1508 1510 1512 1514 1517 1518
1400 1402 1404 1406 1408 1412 1414 1416 1419 1421 1423 1425 1427 1430 1432 1434 1436 1438 1440 1441 1443 1444 1446 1448 1450 1451 1452 1454 1455 1456 1458 1460 1463 1466 1468 1470 1473 1476 1477 1479 1481 1483 1486 1488 1490 1491 1492 1494 1495 1496 1497 1498 1499 1500 1500 1500 1502 1504 1506 1508 1510 1513 1515
1403 1405 1407 1408 1410 1412 1415 1417 1419 1421 1423 1425 1427 1429 1431 1433 1435 1437 1438 1440 1441 1442 1444 1445 1446 1448 1449 1451 1452 1454 1455 1457 1459 1462 1465 1468 1470 1472 1474 1476 1478 1480 1483 1485 1487 1488 1489 1490 1491 1492 1494 1495 1496 1497 1496 1496 1498 1500 1502 1504 1507 1510 1512
1407 1409 1410 1411 1413 1414 1416 1418 1420 1422 1424 1425 1427 1428 1430 1431 1433 1435 1436 1438 1439 1440 1441 1443 1443 1445 1446 1448 1449 1451 1453 1454 1456 1458 1461 1464 1466 1467 1470 1472 1474 1477 1480 1482 1483 1485 1486 1487 1488 1489 1491 1491 1493 1493 1492 1493 1496 1497 1499 1501 1504 1507 1508
1409 1411 1412 1414 1416 1417 1418 1419 1420 1422 1423 1424 1426 1427 1428 1430 1431 1433 1434 1435 1436 1437 1438 1439 1440 1442 1444 1445 1447 1449 1450 1452 1453 1455 1457 1459 1461 1464 1466 1469 1471 1474 1476 1478 1480 1481 1483 1485 1486 1487 1488 1488 1489 1489 1489 1491 1493 1495 1497 1499 1501 1503 1504
1411 1412 1414 1415 1417 1419 1420 1421 1422 1422 1423 1424 1426 1426 1427 1428 1429 1431 1432 1433 1434 1434 1435 1435 1437 1439 1441 1443 1444 1446 1448 1449 1450 1452 1454 1456 1458 1461 1463 1466 1468 1471 1473 1475 1476 1478 1480 1482 1483 1484 1484 1485 1486 1487 1487 1489 1491 1493 1495 1496 1498 1500 1501
1414 1414 1415 1416 1417 1419 1420 1421 1422 1423 1423 1424 1425 1426 1426 1427 1427 1428 1429 1430 1431 1431 1432 1433 1434 1436 1438 1440 1442 1443 1445 1446 1448 1449 1451 1453 1455 1458 1461 1463 1465 1467 1469 1471 1473 1475 1477 1478 1479 1480 1481 1482 1483 1484 1485 1486 1488 1490 1491 1493 1496 1497 1498
1417 1417 1418 1418 1419 1420 1420 1421 1422 1423 1424 1424 1425 1425 1426 1425 1426 1426 1427 1428 1429 1429 1429 1430 1431 1433 1435 1437 1438 1440 1441 1443 1445 1446 1448 1451 1453 1456 1458 1460 1462 1464 1466 1468 1470 1471 1473 1474 1475 1476 1477 1478 1479 1480 1481 1483 1484 1486 1488 1490 1492 1493 1495
1418 1419 1420 1421 1421 1422 1422 1422 1423 1424 1424 1424 1424 1424 1424 1424 1424 1425 1425 1426 1426 1427 1427 1428 1428 1430 1432 1434 1435 1436 1438 1440 1442 1443 1446 1448 1451 1453 1455 1457 1459 1461 1463 1465 1466 1468 1469 1470 1472 1473 1474 1475 1476 1476 1478 1479 1481 1482 1484 1486 1487 1489 1490
1420 1421 1423 1423 1424 1424 1424 1424 1424 1424 1424 1424 1423 1424 1424 1423 1423 1423 1424 1424 1424 1424 1425 1425 1426 1427 1428 1431 1432 1433 1435 1437 1439 1441 1443 1445 1447 1450 1452 1454 1456 1458 1460 1462 1463 1464 1465 1467 1468 1469 1470 1471 1472 1473 1474 1476 1478 1479 1481 1482 1483 1484 1484
1422 1424 1425 1426 1426 1426 1426 1426 1425 1425 1424 1424 1423 1424 1423 1423 1423 1423 1422 1422 1422 1422 1423 1423 1424 1425 1426 1428 1430 1431 1433 1434 1436 1438 1440 1442 1445 1447 1449 1451 1453 1455 1457 1458 1460 1461 1462 1463 1465 1466 1467 1468 1469 1470 1472 1474 1475 1476 1477 1478 1479 1479 1479
1424 1426 1426 1427 1428 1427 1427 1427 1426 1425 1425 1424 1424 1424 1423 1423 1423 1422 1422 1422 1421 1421 1422 1422 1423 1423 1424 1426 1428 1429 1431 1432 1434 1436 1438 1440 1443 1445 1447 1449 1451 1452 1454 1455 1457 1458 1459 1460 1462 1463 1464 1465 1466 1468 1470 1472 1473 1474 1475 1475 1475 1475 1475
1425 1427 1428 1428 1428 1428 1427 1427 1426 1426 1425 1424 1424 1424 1423 1423 1422 1421 1421 1421 1421 1421 1422 1422 1422 1423 1424 1425 1427 1428 1429 1431 1433 1434 1436 1439 1441 1443 1445 1447 1449 1450 1451 1452 1454 1455 1456 1458 1459 1460 1462 1463 1464 1466 1467 1469 1471 1472 1472 1471 1471 1471 1472
1426 1427 1428 1429 1429 1429 1428 1427 1426 1426 1425 1424 1424 1423 1423 1422 1421 1421 1420 1420 1420 1421 1421 1421 1422 1422 1423 1424 1426 1428 1429 1430 1432 1433 1435 1437 1439 1441 1443 1445 1447 1448 1449 1450 1452 1453 1454 1456 1457 1459 1460 1461 1462 1464 1465 1467 1468 1468 1468 1468 1468 1468 1469
1428 1428 1429 1429 1429 1429 1428 1427 1427 1425 1425 1424 1424 1423 1422 1422 1421 1421 1420 1420 1420 1420 1420 1421 1422 1422 1422 1424 1425 1427 1428 1430 1431 1432 1434 1436 1438 1440 1442 1444 1445 1446 1447 1448 1449 1450 1452 1454 1455 1457 1458 1459 1460 1462 1463 1463 1464 1464 1465 1465 1466 1466 1466
1429 1429 1429 1429 1429 1429 1428 1427 1426 1425 1424 1424 1423 1423 1422 1421 1421 1422 1421 1420 1419 1419 1419 1420 1421 1421 1422 1423 1424 1426 1428 1429 1430 1432 1433 1435 1437 1439 1441 1442 1444 1445 1446 1447 1448 1449 1450 1452 1453 1454 1456 1457 1458 1459 1460 1460 1460 1461 1462 1463 1463 1464 1464
1430 1430 1429 1428 1428 1428 1427 1426 1425 1424 1424 1424 1423 1423 1422 1421 1422 1422 1420 1419 1419 1418 1418 1419 1420 1421 1421 1422 1423 1425 1426 1428 1430 1431 1432 1434 1436 1438 1439 1440 1441 1443 1444 1444 1446 1447 1449 1450 1451 1452 1453 1454 1455 1456 1457 1458 1458 1459 1460 1460 1461 1461 1461
1430 1430 1429 1429 1428 1427 1426 1426 1425 1424 1424 1424 1423 1422 1422 1421 1421 1420 1420 1420 1419 1419 1419 1419 1419 1420 1420 1421 1423 1424 1425 1427 1428 1429 1431 1433 1435 1436 1436 1437 1439 1440 1441 1442 1444 1445 1447 1448 1449 1450 1451 1452 1453 1454 1455 1455 1456 1456 1457 1458 1458 1458 1458
1430 1429 1429 1429 1428 1427 1426 1425 1424 1424 1423 1423 1423 1422 1421 1420 1420 1420 1420 1420 1420 1419 1419 1419 1419 1420 1420 1421 1422 1423 1424 1426 1427 1428 1429 1432 1433 1434 1434 1435 1436 1437 1439 1441 1442 1443 1444 1446 1446 1448 1449 1449 1450 1451 1452 1453 1454 1454 1455 1455 1455 1455 1456
Wind_Speed
43 44 45 45 46 46 48 49 48 48 47 48 49 47 46 45 46 47 48 49 50 50 51 50 50 49 47 46 44 42 41 40 40 40 39 38 37 36 36 34 32 30 31 30 29 27 25 23 21 20 20 19 19 19 19 18 17 17 16 16 16 16 16
43 44 44 45 46 46 48 50 49 49 48 47 47 47 46 46 46 47 48 48 49 50 51 51 51 51 49 47 45 44 42 41 40 40 40 39 38 37 36 35 33 32 32 32 31 29 27 25 23 21 20 20 20 20 19 19 19 18 18 18 18 17 17
44 44 45 46 46 46 47 49 49 50 50 48 48 49 49 47 47 47 47 47 48 48 49 51 51 52 50 48 46 45 44 43 42 41 41 40 39 38 37 36 35 32 31 32 32 31 30 28 26 24 22 21 20 20 20 20 20 20 19 19 20 19 18
44 44 45 46 46 46 46 47 49 51 52 52 52 52 51 47 45 46 46 46 47 47 49 51 51 52 52 50 47 46 45 44 43 42 41 40 39 39 38 38 36 34 32 31 30 30 29 29 28 27 25 24 22 21 21 21 21 21 21 21 21 21 20
42 42 44 44 45 45 45 46 49 50 52 53 52 51 50 47 45 45 46 46 46 47 48 50 51 51 52 51 49 47 45 44 43 42 41 41 40 40 40 39 38 37 35 33 31 30 29 28 28 27 27 25 25 24 23 22 21 21 21 22 22 22 21
41 41 42 43 44 46 46 46 48 50 51 50 49 48 47 46 46 47 47 46 45 46 47 49 51 51 51 51 51 49 47 45 44 43 42 41 41 41 41 40 39 38 37 35 34 33 31 30 29 28 27 26 26 25 25 24 23 22 22 23 23 22 22
43 44 44 45 46 47 47 47 47 48 48 47 47 46 46 46 47 47 48 47 46 46 47 49 50 51 52 51 51 50 49 47 46 44 43 42 42 42 42 41 41 39 38 37 36 35 33 32 30 29 28 27 26 26 26 26 25 25 24 24 24 23 23
43 45 46 47 48 48 47 47 47 47 47 46 45 46 47 47 48 48 48 47 47 47 48 49 51 52 52 52 52 52 50 49 47 46 45 44 43 43 42 42 41 39 39 38 37 36 35 34 32 31 30 28 27 27 27 27 27 26 26 26 26 25 25
42 45 47 47 47 48 47 48 48 47 46 46 45 46 46 47 48 48 48 47 46 48 49 49 50 51 52 52 52 52 51 50 49 48 47 46 45 44 43 42 41 39 39 38 38 37 36 35 34 32 32 31 30 29 28 28 28 28 28 27 27 27 27
40 43 48 49 46 46 47 46 47 47 46 46 47 48 47 47 46 45 45 45 46 48 49 49 50 50 51 52 52 52 52 51 50 49 48 48 47 45 43 42 41 40 40 39 38 38 38 37 35 34 33 33 33 32 31 31 30 30 29 29 29 28 28
42 42 47 49 45 44 44 42 43 44 44 44 45 47 48 47 45 43 42 43 44 46 47 48 49 50 50 51 51 51 52 51 51 50 49 48 47 46 44 43 42 41 40 40 39 39 38 38 37 35 35 35 35 34 34 34 32 32 31 30 30 30 29
47 45 46 48 46 44 43 41 41 41 41 41 42 43 45 45 44 42 41 42 42 43 44 46 48 49 50 51 51 51 52 52 51 50 49 49 47 46 45 44 43 42 42 41 40 40 40 39 38 37 37 36 36 35 35 35 35 34 33 32 32 31 31
44 45 47 48 47 46 45 44 45 44 42 43 43 43 43 42 43 43 42 42 42 41 41 43 45 47 49 50 51 52 52 52 51 51 49 48 47 46 45 44 44 43 42 42 41 41 41 40 39 39 38 37 36 36 36 36 36 36 35 34 34 33 33
40 39 44 47 48 48 48 47 47 48 47 47 47 46 44 42 43 43 43 43 42 42 41 41 43 45 46 48 49 51 52 51 50 49 48 47 47 46 45 45 44 44 43 42 42 42 41 41 40 40 39 39 38 37 37 37 38 38 37 36 36 36 36
35 32 37 43 46 48 48 48 47 47 48 48 46 46 45 44 43 44 44 44 43 42 42 41 41 43 44 46 48 50 51 50 49 48 47 47 47 46 45 45 45 44 44 43 43 42 42 41 41 41 41 40 39 39 39 40 40 40 39 39 38 38 38
29 29 33 38 43 46 47 48 48 47 47 46 44 44 44 43 44 44 44 43 42 42 41 41 42 43 44 46 48 48 49 49 49 48 47 47 47 46 45 45 44 44 44 44 43 43 42 42 42 42 42 42 41 41 41 42 42 42 41 40 40 40 40
27 30 33 34 37 41 43 44 45 45 45 42 40 41 41 40 42 43 43 42 41 41 41 41 42 43 45 46 46 47 47 47 48 48 48 47 47 46 45 45 44 44 44 44 43 43 42 42 42 42 43 42 42 42 42 43 43 43 42 42 42 42 42
24 26 28 30 30 33 36 38 39 39 37 35 36 37 38 38 38 40 41 41 40 40 41 42 42 43 45 46 46 46 46 46 46 47 47 47 46 46 45 45 45 45 44 44 44 43 43 42 42 42 42 42 42 42 43 43 43 43 43 43 43 43 43
20 20 22 23 23 25 28 28 27 27 26 28 32 35 36 37 36 36 37 38 38 38 39 41 42 43 44 45 46 47 46 45 45 45 46 45 45 45 45 45 46 46 45 45 44 44 44 43 43 43 43 43 43 43 44 44 43 43 42 42 42 42 43
19 18 18 18 18 19 21 20 20 20 21 25 29 31 32 33 33 32 32 33 35 37 38 40 41 43 43 44 46 48 47 46 45 45 44 44 43 44 44 46 46 46 45 45 45 45 45 44 44 44 44 44 45 44 44 44 44 43 42 42 41 41 42
25 24 23 22 19 18 17 16 16 16 16 18 20 22 25 27 28 28 28 29 32 34 36 38 40 42 42 42 44 47 48 48 47 45 44 43 43 43 44 45 46 46 46 46 46 46 46 46 45 45 45 45 45 46 46 46 45 44 43 43 41 40 41
29 28 26 25 23 20 18 16 14 12 11 12 12 13 17 21 23 25 26 28 30 32 34 36 38 40 42 42 41 44 48 49 48 46 45 44 43 43 43 44 44 45 45 46 46 47 46 47 47 46 46 46 46 47 48 48 47 46 45 44 42 40 40
27 24 21 21 21 19 16 15 13 11 11 13 12 12 13 14 17 22 25 27 29 30 31 34 37 38 40 42 41 41 44 47 48 47 46 45 44 44 44 43 43 43 44 45 46 47 47 48 48 48 47 47 47 48 49 49 48 47 46 44 42 41 40
24 22 18 16 15 14 12 10 10 8 7 9 11 12 13 13 13 16 20 23 27 29 30 32 36 37 38 40 41 40 40 43 46 47 46 46 46 45 44 43 43 42 42 44 45 46 46 46 47 47 48 48 49 49 50 49 48 47 46 44 42 41 40
21 19 17 15 14 14 12 9 10 9 5 4 6 10 13 15 16 15 16 17 22 27 30 31 33 35 37 38 39 39 38 39 42 45 46 46 45 44 43 42 42 41 41 42 43 44 44 44 45 46 47 48 48 49 49 49 47 46 46 45 43 41 39
20 16 16 17 14 12 10 7 7 6 2 1 2 5 9 15 18 18 16 15 16 21 27 31 31 30 31 34 37 38 38 37 39 42 44 45 44 43 42 41 41 41 40 40 41 41 42 43 44 45 45 45 46 47 47 47 46 45 45 44 43 41 40
19 15 16 17 14 11 9 7 6 5 4 4 3 6 9 12 16 20 20 18 16 16 18 23 29 29 28 28 31 36 37 36 36 38 40 42 41 41 41 40 40 40 39 38 39 39 40 41 42 43 43 43 43 44 44 44 44 44 43 42 42 42 41
19 15 14 14 14 12 10 10 11 9 6 6 7 7 9 11 12 16 18 17 18 18 15 14 19 25 28 28 27 30 34 35 35 34 36 38 39 39 39 39 38 38 37 37 37 37 38 39 40 40 41 42 41 41 40 40 39 39 39 38 38 37 38
18 16 12 11 12 11 8 9 11 8 5 8 10 8 7 10 10 10 12 14 17 20 19 16 14 16 22 27 27 27 30 32 33 32 33 35 37 37 37 37 36 36 35 35 35 35 37 38 38 39 39 40 41 40 38 36 35 34 32 32 31 30 31
15 13 12 12 12 7 4 6 8 7 7 9 10 7 4 6 7 6 9 13 15 17 19 19 18 15 16 21 26 26 27 29 30 29 30 31 33 34 35 35 34 33 33 32 32 33 35 35 35 35 36 36 37 37 35 32 30 28 26 26 26 27 28
14 11 11 12 12 7 2 4 6 7 7 7 6 3 2 2 4 6 9 12 13 14 15 17 18 17 14 16 23 25 26 27 27 26 26 27 29 30 31 31 31 30 30 30 30 31 32 33 33 32 32 31 31 31 31 30 28 25 24 24 26 27 28
14 10 9 12 12 9 4 2 5 7 6 5 3 1 1 2 3 5 8 10 10 10 12 14 16 15 12 14 20 24 25 25 24 23 22 23 24 25 26 26 27 27 28 28 29 30 30 30 30 31 30 29 29 28 27 26 26 26 27 27 28 27 25
17 11 8 10 11 9 6 4 5 6 6 7 5 3 3 3 4 4 5 7 8 9 11 12 13 12 12 14 18 21 23 23 21 19 19 20 20 21 21 21 23 24 25 27 28 29 29 29 29 29 29 27 26 25 24 23 24 26 28 29 29 29 27
17 12 8 9 9 9 8 6 5 5 7 8 5 3 3 3 3 3 4 5 7 9 11 12 11 12 13 15 17 19 20 20 18 17 17 18 19 19 18 19 20 21 23 24 26 27 27 27 27 27 27 26 24 23 21 22 23 25 27 28 28 29 30
15 12 9 8 8 8 9 7 5 5 6 4 3 3 3 4 4 4 4 3 3 6 9 12 13 13 14 15 16 17 18 19 18 16 15 18 19 18 17 18 19 20 21 22 23 24 24 24 24 24 25 25 25 23 22 22 22 23 24 25 26 27 28
13 10 9 10 9 8 9 7 5 5 3 2 4 6 4 4 4 4 3 2 4 4 6 9 12 13 14 14 15 15 16 18 18 15 14 17 18 18 18 18 18 19 21 22 23 22 21 21 21 22 23 24 24 23 23 22 21 21 21 21 22 22 23
13 10 10 11 9 7 6 4 4 3 2 2 6 7 7 6 4 2 2 3 4 4 5 7 9 11 13 14 14 15 15 16 17 17 16 17 17 19 20 20 20 20 20 19 20 21 21 21 20 19 20 21 21 22 22 21 21 20 19 19 20 21 22
12 11 10 9 8 6 4 2 1 1 1 2 2 4 7 6 6 5 3 2 3 3 5 7 8 9 12 12 13 15 16 17 18 19 18 18 19 21 21 21 22 22 18 15 15 16 17 19 18 17 18 18 18 18 18 19 19 19 19 20 21 23 24
Wind_Direction
175 178 181 181 184 187 189 192 193 194 195 198 201 200 201 202 202 204 205 206 207 208 208 208 208 210 211 213 215 215 214 212 211 211 213 216 218 219 220 221 221 216 214 218 222 223 224 225 225 222 220 220 221 221 219 219 219 219 220 224 228 230 231
175 178 179 180 183 187 191 193 193 194 195 197 200 200 200 202 203 204 206 207 208 209 209 209 209 210 212 215 215 216 216 215 213 213 214 216 217 219 221 223 223 220 217 218 222 225 227 228 230 230 228 226 225 225 224 221 221 221 221 223 229 232 234
175 177 178 181 185 189 192 193 194 196 197 197 198 200 201 203 204 205 206 207 209 210 211 211 211 212 213 215 216 216 218 217 216 215 215 217 217 218 221 224 225 224 221 220 221 224 227 230 233 235 235 233 229 229 229 227 224 223 223 225 230 233 235
175 175 178 181 184 189 193 194 196 197 199 199 201 203 202 202 204 206 207 208 209 210 212 213 214 214 214 215 216 217 218 219 219 218 218 218 219 219 220 222 224 226 226 224 224 225 226 228 232 235 236 235 234 233 232 231 229 225 223 225 230 234 235
174 172 175 179 182 187 192 195 197 198 200 202 203 204 203 202 204 206 208 210 211 214 216 216 216 215 215 215 216 218 220 221 221 221 221 221 220 220 220 221 224 226 228 229 230 230 229 227 229 232 234 234 235 236 234 233 231 227 222 223 228 232 234
171 172 174 178 182 188 192 195 198 199 200 201 202 203 202 202 205 207 208 210 213 216 217 217 217 216 216 216 217 219 220 221 222 222 223 223 222 221 221 223 224 226 229 231 233 234 232 230 229 230 232 233 234 234 234 234 233 232 227 223 226 230 232
171 173 175 179 184 190 193 196 198 199 199 200 201 202 202 202 205 207 208 210 213 215 217 217 218 217 217 217 218 219 220 221 222 223 224 224 224 223 223 224 225 227 229 231 233 233 232 232 231 230 231 233 234 235 235 235 235 236 233 228 227 229 231
173 174 177 180 186 191 194 197 198 198 198 199 199 200 201 202 204 206 208 211 213 215 217 218 218 218 218 218 219 220 222 223 224 224 224 224 224 224 225 225 226 228 229 230 232 234 233 232 231 231 231 232 234 236 237 238 238 237 237 235 232 230 231
173 176 181 183 187 191 195 198 198 197 198 199 198 198 199 201 203 206 208 211 212 214 217 218 219 219 219 219 220 221 222 223 224 225 224 224 225 226 226 227 228 228 229 230 232 234 235 233 231 230 231 232 234 236 238 240 241 240 240 239 238 235 234
171 176 184 186 187 190 193 194 194 195 197 198 199 199 200 201 203 205 208 210 212 214 216 218 219 219 220 221 222 223 223 223 225 225 225 225 226 227 228 228 229 229 230 231 232 233 235 235 233 230 230 233 234 235 237 239 241 242 242 242 242 241 240
172 176 182 185 187 188 189 189 191 193 196 198 200 202 202 202 203 204 207 210 212 214 216 218 219 219 220 221 222 223 224 224 225 225 226 227 227 228 229 229 230 231 231 231 232 233 234 235 234 232 231 233 236 237 239 240 241 242 243 244 244 244 245
174 175 177 180 182 184 186 187 190 194 196 198 201 203 203 203 203 204 206 210 212 214 216 217 218 219 220 221 222 223 224 224 224 225 227 228 229 229 229 229 230 231 232 232 233 233 234 234 234 234 233 234 237 238 241 242 242 243 244 246 246 246 247
177 173 170 174 177 180 184 186 190 194 196 197 199 200 202 203 203 203 204 208 211 213 216 217 218 219 221 222 222 223 224 224 225 227 228 230 230 230 230 229 229 230 232 233 233 233 234 234 235 236 237 238 238 239 242 243 243 244 245 245 246 246 247
178 170 166 171 174 177 181 183 188 192 194 196 197 199 201 202 203 203 204 207 210 211 215 217 218 219 220 222 223 223 224 225 227 228 229 230 231 230 231 230 229 230 232 234 234 234 234 235 236 238 239 240 240 240 242 243 243 244 244 245 245 245 246
167 164 165 170 172 176 179 182 185 188 191 194 196 199 203 203 203 204 204 206 209 211 214 217 218 219 219 221 223 224 225 225 226 228 228 229 230 230 231 231 231 231 231 233 234 235 236 236 237 239 240 241 242 242 242 242 243 243 244 244 244 244 246
149 157 166 169 172 177 181 184 186 189 192 194 196 199 202 202 202 203 204 206 208 210 213 215 218 219 219 221 223 224 225 225 226 227 227 228 229 230 231 231 232 231 231 232 234 236 237 236 236 238 240 241 242 242 242 242 243 244 244 245 245 245 246
133 148 161 167 173 178 181 183 187 192 195 195 197 198 199 200 201 202 204 206 208 211 212 214 217 220 221 221 223 224 226 226 226 226 227 227 228 230 231 231 231 231 231 231 233 235 237 237 236 237 239 241 242 243 243 244 244 245 245 246 246 245 246
118 133 148 157 167 176 180 183 187 191 193 194 198 199 199 200 202 203 205 207 209 212 213 214 217 220 222 221 222 224 227 227 227 226 227 228 228 229 230 230 230 230 230 230 232 234 236 237 238 239 239 241 243 244 245 247 248 248 247 247 247 246 246
103 121 134 144 155 166 174 180 183 187 192 197 200 201 201 202 203 204 207 210 211 213 214 215 217 220 223 223 222 224 227 228 229 228 228 229 229 229 229 229 229 229 230 231 231 232 235 238 240 241 241 241 243 246 248 250 251 251 249 249 248 248 248
86 108 119 128 140 153 161 167 171 179 189 193 195 197 199 202 205 208 211 212 213 214 215 217 218 220 224 225 223 224 225 227 229 231 231 231 230 230 229 229 229 230 230 231 230 230 233 237 240 241 242 243 245 247 249 251 253 253 252 251 250 249 249
75 87 94 101 112 126 136 143 149 158 170 179 185 192 197 202 207 211 215 216 215 215 217 219 220 222 224 227 226 225 225 225 227 230 232 233 232 231 230 229 230 230 230 229 229 231 233 236 238 241 243 244 245 246 249 251 253 253 253 252 251 250 250
73 82 85 89 97 108 117 125 131 136 147 162 173 185 198 208 213 215 218 219 218 219 220 221 222 223 225 227 228 227 226 226 226 227 230 232 233 233 233 232 231 231 230 229 230 231 233 235 237 239 242 244 245 245 248 251 251 251 252 252 251 251 250
70 76 78 83 89 95 105 122 131 136 152 167 173 175 183 198 211 217 220 222 222 222 222 223 225 225 225 227 229 229 228 227 227 227 227 229 231 233 234 234 234 233 232 231 230 231 232 233 236 238 240 242 243 245 247 249 249 249 250 251 251 250 250
62 61 63 68 74 75 79 95 100 108 147 175 190 197 193 188 195 208 217 222 225 224 222 223 226 227 228 228 229 230 230 229 228 228 228 227 229 232 234 235 235 235 234 234 233 232 233 234 235 237 239 241 243 245 247 248 248 248 249 251 251 251 251
56 53 49 44 52 63 66 75 85 93 120 158 188 209 213 208 206 211 215 218 222 223 224 224 224 226 229 230 231 232 232 232 230 229 229 229 229 231 233 235 236 236 236 236 236 236 235 235 236 238 239 241 243 245 247 248 248 248 249 250 251 252 254
54 50 42 32 34 49 54 59 78 93 105 84 190 218 225 220 220 224 227 224 219 218 223 228 228 227 228 230 232 233 234 234 233 231 231 230 230 230 231 234 235 236 236 237 237 238 238 237 238 239 241 243 244 245 247 248 250 250 251 252 251 252 253
56 59 53 39 22 15 20 16 16 18 350 324 284 245 239 232 229 230 232 235 231 222 222 230 232 231 229 229 231 234 234 235 234 233 232 231 231 231 231 233 234 235 237 237 238 239 239 239 240 240 242 244 245 247 248 249 251 252 253 254 254 253 254
47 50 57 47 22 6 4 355 353 2 350 308 287 264 248 242 240 239 237 238 238 232 228 230 231 231 231 230 230 233 234 234 234 233 232 231 231 231 231 232 233 234 237 238 239 240 240 240 240 241 242 243 245 248 250 251 252 254 255 256 256 256 256
42 42 47 37 11 6 18 4 350 353 339 307 307 304 268 248 249 250 243 239 237 234 230 227 226 226 228 230 231 232 233 234 233 232 231 230 230 231 231 232 233 234 237 239 239 240 240 240 241 242 243 244 245 247 250 253 255 257 258 259 259 258 259
32 37 42 23 358 354 46 38 1 330 307 308 318 333 311 254 242 234 233 233 233 230 226 224 224 222 222 226 229 230 231 233 232 230 229 229 229 230 231 232 234 236 238 239 239 239 239 240 242 243 244 245 245 245 247 250 255 258 260 262 262 262 263
18 26 32 16 357 339 340 49 14 332 308 307 312 330 347 276 229 215 222 228 233 232 224 221 224 223 218 221 226 227 227 228 229 228 227 227 228 229 230 231 233 235 237 238 238 238 239 240 241 242 243 245 246 246 244 245 248 252 256 260 262 264 266
4 6 18 14 3 346 318 352 8 344 318 310 302 267 282 265 225 221 224 223 228 230 223 220 223 221 216 216 219 222 223 223 223 224 223 224 227 230 233 234 235 236 237 236 236 237 238 239 240 241 242 244 246 247 247 246 247 249 252 255 256 258 261
353 349 3 7 355 343 337 343 354 348 328 319 310 273 271 274 251 250 247 234 229 222 214 214 214 206 204 209 210 211 215 218 218 218 218 219 222 225 229 234 236 236 236 235 234 235 236 237 238 238 239 242 245 247 248 249 248 247 249 250 253 256 259
350 342 347 356 344 335 339 337 320 316 327 332 330 309 316 329 310 300 302 277 252 229 213 209 200 186 187 197 201 201 204 211 216 217 214 214 215 217 220 226 230 232 234 235 234 234 234 235 236 237 238 241 243 244 244 244 243 243 246 250 254 258 262
345 338 344 354 340 320 325 329 309 302 319 344 7 8 42 70 53 10 344 303 246 220 210 208 200 186 180 184 192 195 199 206 213 216 211 207 206 207 213 221 226 228 231 233 233 234 235 234 234 235 237 239 241 242 243 245 245 246 248 251 255 258 262
337 330 339 351 340 314 313 321 314 311 331 35 18 7 38 80 50 4 325 230 188 182 196 199 195 191 187 185 189 193 197 203 208 208 203 200 202 205 210 215 220 222 224 227 229 230 233 233 232 233 234 235 238 239 240 243 244 245 245 247 251 256 260
332 317 319 337 341 320 305 314 332 345 20 24 11 28 62 74 59 57 206 209 192 180 184 183 183 190 193 189 189 193 195 196 197 199 198 196 201 207 209 209 211 212 214 218 220 222 224 226 227 229 229 230 232 233 233 235 239 243 246 250 255 260 264
320 307 303 318 327 311 281 251 288 341 207 252 358 64 92 89 83 93 123 198 206 188 180 177 172 178 187 188 188 194 197 193 193 197 196 192 197 205 207 204 199 195 195 199 204 208 212 215 219 223 225 227 229 232 235 240 245 253 260 264 269 272 274